Location: Unspecified
(17.6330°N, 0.0000°E)
Time: 01:16:05
(UTC+00:00)

S-56A Canister/Altair - Pass Details

Date: 30 June 2019
Orbit: 632 x 2500 km, 38.9° (Epoch: 21 July)

Event Time Altitude Azimuth Distance (km) Brightness Sun altitude
Rises 19:34:02 0° 310° (NW) 3,981 13.1 -12.6°
Reaches altitude 10° 19:37:16 10° 314° (NW) 2,751 11.7 -13.2°
Maximum altitude 19:43:23 60° 33° (NNE) 876 7.8 -14.5°
Enters shadow 19:46:16 23° 107° (ESE) 1,451 8.4 -15.1°
Drops below altitude 10° 19:47:59 10° 114° (ESE) 2,079 - -15.4°
Sets 19:50:07 0° 118° (ESE) 2,930 - -15.9°
